EW0401 Weather Reports


time (UTC)temp
C
wind
direction
speed
KPH
gust
KPH
rain 1hr
cm
rain 24hr
cm
rain mn
cm
humidity
%
barometer
mb
20260504140105 22 253 1.6 11.3 0.00 0.00 0.00 68 1017.0
20260504081552 17 0 0.0 0.0 0.00 0.00 0.00 75 1017.3
20260504060104 16 0 0.0 0.0 0.00 0.00 0.00 80 1018.7
20260504044556 16 0 0.0 0.0 0.00 0.00 0.00 81 1019.3
20260504043050 16 0 0.0 0.0 0.00 0.00 0.00 80 1019.1
20260504041552 16 0 0.0 0.0 0.00 0.00 0.00 78 1019.3
20260504040055 17 0 0.0 0.0 0.00 0.00 0.00 76 1019.4
20260504034606 17 0 0.0 0.0 0.00 0.00 0.00 74 1019.3
20260504033059 17 0 0.0 0.0 0.00 0.00 0.00 72 1019.3
20260504031602 18 0 0.0 0.0 0.00 0.00 0.00 71 1019.3
20260504030113 18 0 0.0 0.0 0.00 0.00 0.00 68 1019.2
20260504024551 18 0 0.0 0.0 0.00 0.00 0.00 67 1019.2
20260504023057 19 0 0.0 0.0 0.00 0.00 0.00 66 1019.2
20260504021603 19 0 0.0 0.0 0.00 0.00 0.00 65 1019.1
20260504020051 20 0 0.0 0.0 0.00 0.00 0.00 64 1019.1
20260504014553 20 0 0.0 3.2 0.00 0.00 0.00 65 1018.8
20260504013050 20 0 0.0 1.6 0.00 0.00 0.00 64 1018.9
20260504011553 20 0 0.0 0.0 0.00 0.00 0.00 63 1018.8
20260504010054 21 0 0.0 0.0 0.00 0.00 0.00 62 1018.8
20260504004553 21 0 0.0 4.8 0.00 0.00 0.00 59 1018.9
20260504003051 22 206 0.0 3.2 0.00 0.00 0.00 57 1018.8
20260504001553 23 0 0.0 3.2 0.00 0.00 0.00 53 1018.9
20260504000129 24 206 0.0 3.2 0.00 0.00 0.00 50 1019.1
20260503234556 24 0 0.0 3.2 0.00 0.00 0.00 50 1019.2
20260503233053 24 0 0.0 3.2 0.00 0.00 0.00 51 1019.3
20260503231552 24 0 0.0 8.0 0.00 0.00 0.00 49 1019.5
20260503230054 25 0 1.6 14.5 0.00 0.00 0.00 47 1019.5
20260503224553 25 0 0.0 6.4 0.00 0.00 0.00 49 1019.6
20260503223054 26 0 0.0 4.8 0.00 0.00 0.00 46 1019.9
20260503221557 26 0 0.0 9.7 0.00 0.00 0.00 47 1019.8
20260503220057 26 0 0.0 4.8 0.00 0.00 0.00 47 1019.9
20260503214550 26 0 0.0 4.8 0.00 0.00 0.00 46 1020.1
20260503213053 26 0 0.0 6.4 0.00 0.00 0.00 45 1020.2
20260503211551 26 0 0.0 4.8 0.00 0.00 0.00 48 1020.4
20260503210052 26 0 1.6 9.7 0.00 0.00 0.00 46 1020.5
20260503204554 26 213 0.0 8.0 0.00 0.00 0.00 48 1020.7
20260503203052 26 0 0.0 6.4 0.00 0.00 0.00 46 1020.9
20260503201552 26 167 0.0 3.2 0.00 0.00 0.00 48 1021.2
20260503200051 26 208 0.0 6.4 0.00 0.00 0.00 45 1021.3
20260503194554 26 211 0.0 8.0 0.00 0.00 0.00 46 1021.6
20260503193052 26 0 0.0 6.4 0.00 0.00 0.00 46 1021.7
20260503191551 26 0 0.0 3.2 0.00 0.00 0.00 44 1022.0
20260503190052 25 0 0.0 9.7 0.00 0.00 0.00 47 1022.2
20260503184605 25 0 1.6 6.4 0.00 0.00 0.00 45 1022.3
20260503183055 26 0 0.0 4.8 0.00 0.00 0.00 46 1022.5
20260503181556 26 0 0.0 6.4 0.00 0.00 0.00 45 1022.7
20260503180056 25 0 0.0 4.8 0.00 0.00 0.00 44 1022.9
20260503174554 25 0 0.0 6.4 0.00 0.00 0.00 47 1023.2
20260503173058 25 0 0.0 3.2 0.00 0.00 0.00 46 1023.4
20260503171610 25 128 0.0 3.2 0.00 0.00 0.00 44 1023.5